Regional Weather Roundup
Issued by NWS Jackson, KY

Home | Current Version | Previous Version | Graphics & Text | Print | Product List | Glossary On
Versions: 1 2 3 4 5 6 7 8 9 10 11 12 13 14 15 16 17 18 19 20 21 22 23 24 25 26 27 28 29 30 31 32 33 34 35 36 37 38 39 40 41 42 43 44 45 46 47 48 49 50
921
ASUS43 KJKL 230310
RWRJKL

EAST KENTUCKY HOURLY WEATHER ROUNDUP
NATIONAL WEATHER SERVICE JACKSON KY
1000 PM EST SUN JAN 22 2017

NOTE: "FAIR" INDICATES FEW OR NO CLOUDS BELOW 12,000 FEET WITH
NO SIGNIFICANT WEATHER AND/OR OBSTRUCTIONS TO VISIBILITY.

* THESE REPORTS ARE NOT UNDER NWS QUALITY CONTROL AND MAY NOT
  REPORT WEATHER SUCH AS PRECIPITATION AND FOG.

KYZ079-080-083-085-087-088-110-112-115-119-120-230400
...EASTERN KENTUCKY...

CITY           SKY/WX    TMP DP  RH WIND       PRES   REMARKS
JACKSON        CLOUDY    54  51  90 VRB7      29.31F
LONDON         CLOUDY    55  50  83 NE9       29.29R
SOMERSET*      DRIZZLE   54  54 100 E12       29.30R
MONTICELLO*    RAIN      54  52  93 N21       29.29S
WILLIAMSBURG*  CLOUDY    55  55 100 NE10      29.26F
MIDDLESBORO*   LGT RAIN  56  54  91 CALM      29.28R
HARLAN APT*    CLOUDY    54  50  87 CALM      29.28R
PIKE CO APT*   MOCLDY    53  53 100 NE14      29.31F
BIG SANDY APT* DRIZZLE   54  54 100 NE9       29.33F
MOREHEAD APT*  CLOUDY    55  50  82 NE9G21    29.37F
ASHLAND*       CLOUDY    55  50  82 NE7       29.38F
$$

KYZ035-036-041-042-044-050-067-078-099-230400
...CENTRAL KENTUCKY...

CITY           SKY/WX    TMP DP  RH WIND       PRES   REMARKS
MT STERLING*   CLOUDY    54  52  94 NE10      29.36F
FLEMING/MASON* CLOUDY    54  51  88 NE13G20   29.40F
DANVILLE*      LGT RAIN  54  50  87 NE12      29.34S
LEXINGTON      CLOUDY    55  50  83 NE18      29.35F
FRANKFORT      CLOUDY    56  50  80 N10       29.36S
LOUISVILLE     CLOUDY    60  47  61 N16       29.38R
LEBANON*       MOCLDY    55  52  88 N7        29.34R
GLASGOW*       CLOUDY    56  51  85 NE12G17   29.31R
BOWLING GREEN  CLOUDY    58  52  80 N10       29.32S
$$

KYZ091>093-OHZ055-061-077-WVZ005-015-034-035-042-230400
...SOUTHERN OHIO/WEST VIRGINIA...

CITY           SKY/WX    TMP DP  RH WIND       PRES   REMARKS
COVINGTON      CLOUDY    57  49  74 NE13      29.43S
COLUMBUS       CLOUDY    57  47  69 NE10      29.47F
DAYTON         CLOUDY    53  48  83 N14       29.49F
WILMINGTON     CLOUDY    53  48  83 NE12      29.45S
HUNTINGTON     CLOUDY    56  50  80 NE12      29.37F
CHARLESTON     CLOUDY    55  49  80 NE9       29.39F
BECKLEY        CLOUDY    50  46  86 SE15G23   29.42F
BLUEFIELD      CLOUDY    47  45  93 SE14G26   29.44S
LOGAN CO APT*  CLOUDY    54  50  87 CALM      29.38S
$$

VAZ002-007-008-TNZ017-027-036-066-071-230400
...SOUTHWEST VIRGINIA/EAST TENNESSEE...

CITY           SKY/WX    TMP DP  RH WIND       PRES   REMARKS
WISE*          LGT RAIN  54  46  76 SE6       29.31F
JONESVILLE*    LGT RAIN  54  54 100 CALM      29.30R
ABINGDON*      LGT RAIN  54  51  89 E21G28    29.31F
BRISTOL        LGT RAIN  55  50  83 NE9       29.27F
MORRISTOWN*    CLOUDY    55  54  94 NE12      29.23F FOG
SEVIERVILLE*   MOCLDY    54  54 100 NE13      29.20S
KNOXVILLE      CLOUDY    56  54  93 NE17      29.17F
LAFOLLETTE*    CLOUDY    55  54  94 N3        29.28R
OAK RIDGE      HVY RAIN  56  54  93 NE6       29.21F FOG
CROSSVILLE     CLOUDY    52  50  93 N13G18    29.20F
NASHVILLE      CLOUDY    58  52  80 N17G24    29.29R
$$

...KEY TO REMARKS...
VSB - VISIBILITY IN MILES
WCI - WIND CHILL INDEX
HX  - HEAT INDEX

$$




USA.gov is the U.S. government's official web portal to all federal, state and local government web resources and services.